AirNav   Air Wisconsin Up To $57,000 Bonus
 
 1468 users online  

SC21 Myrtle Beach Hardee Airpark
Loris, South Carolina, USA

GOING TO LORIS?


FAA INFORMATION EFFECTIVE 09 SEPTEMBER 2021

Location

FAA Identifier: SC21
Lat/Long: 33-56-30.6160N 078-49-59.0850W
33-56.510267N 078-49.984750W
33.9418378,-78.8330792
(estimated)
Elevation: 35 ft. / 11 m (estimated)
Variation: 06W (1985)
From city: 8 miles SE of LORIS, SC
Time zone: UTC -4 (UTC -5 during Standard Time)
Zip code: 29569

Airport Operations

Airport use: Private use. Permission required prior to landing
Activation date: 05/1974
Control tower: no
ARTCC: JACKSONVILLE CENTER
FSS: ANDERSON FLIGHT SERVICE STATION
Attendance: UNATNDD
Wind indicator: yes
Segmented circle: no
Lights: ACTVT LIRL RY 18/36 - 123.075 - 4 CLICKS.

Airport Communications

WX ASOS at CRE (10 nm SE): 119.625 (843-361-2802)
WX AWOS-3 at HYW (16 nm SW): 119.525 (843-397-8046)
WX AWOS-3PT at MYR (16 nm S): 123.925 (843-238-0335)

Nearby radio navigation aids

VOR radial/distance  VOR name  Freq  Var
CREr328/9.4GRAND STRAND VORTAC114.4003W

 
NDB name  Hdg/Dist  Freq  Var  ID
HORRY072/16.337008WHYW .... -.-- .--
CAMP204/20.822707WCPC -.-. .--. -.-.

Airport Services

Airframe service: NONE
Powerplant service: NONE

Runway Information

Runway 18/36

Dimensions: 3300 x 130 ft. / 1006 x 40 m
Surface: turf
Runway edge lights: low intensity
RUNWAY 18  RUNWAY 36
Traffic pattern: leftleft

Airport Ownership and Management from official FAA records

Ownership: Privately-owned
Owner: MYRTLE BEACH HARDEE AIRPART POA
211 MOONEY CT
LORIS, SC 29569
Phone 843-602-8220
Manager: RONALD HEIDEBRINK
211 MOONEY CT
LORIS, SC 29569
Phone 843-602-8220

Airport Operational Statistics

Aircraft based on the field: 8
Single engine airplanes: 7
Ultralights: 1
    

Additional Remarks

24 HOUR CCTV SURVEILLANCE
TREES 400FT S OF RY 18.
FOR CD CTC MYRTLE BEACH APCH AT 843-477-2727 OR 843-477-2704, WHEN APCH CLSD CTC JACKSONVILLE ARTCC AT 904-845-1592.

Instrument Procedures

There are no published instrument procedures at SC21.

Some nearby airports with instrument procedures:

5J9 - Twin City Airport (9 nm N)
KCRE - Grand Strand Airport (10 nm SE)
KHYW - Conway-Horry County Airport (16 nm SW)
KMYR - Myrtle Beach International Airport (16 nm S)
KCPC - Columbus County Municipal Airport (21 nm N)
 
Loc | Ops | Rwys | IFR | FBO | Links
Com | Nav | Svcs | Stats | Notes
Area around SC21 (Myrtle Beach Hardee Airpark)
 
Road maps at: MapQuest Bing Google
 
Aerial photo
WARNING: Photo may not be current or correct
Aerial photo of SC21 (Myrtle Beach Hardee Airpark)
Photo by Ron Heidebrink
Photo taken 26-Feb-2010
looking north-northeast.

Do you have a better or more recent aerial photo of Myrtle Beach Hardee Airpark that you would like to share? If so, please send us your photo.

 
Sectional chart

 
Airport distance calculator
Flying to Myrtle Beach Hardee Airpark? Find the distance to fly.

From to SC21

Sunrise and sunset
Times for 23-Sep-2021
 Local
(UTC-4)
 Zulu
(UTC)
Morning civil twilight06:4010:40
Sunrise07:0511:05
Sunset19:1023:10
Evening civil twilight19:3523:35

Current date and time
Zulu (UTC)  23-Sep-2021 21:18:59
Local (UTC-4)  23-Sep-2021 17:18:59
 
METAR
KCRE 
9nm SE 
232053Z 34006KT 10SM CLR 26/14 A2987 RMK AO1 SLP114 T02610144 55007
KHYW 
16nm SW 
232055Z AUTO 34004KT 10SM CLR 25/14 A2989 RMK AO2
KMYR 
17nm S 
232056Z 34010KT 10SM CLR 27/15 A2988 RMK AO2 SLP117 T02670150 55006
TAF
KCRE 
9nm SE 
231720Z 2318/2418 33008KT P6SM FEW250 FM240000 36006KT P6SM SKC FM241000 01010KT P6SM SKC
KMYR 
17nm S 
231720Z 2318/2418 33008KT P6SM FEW250 FM240000 36006KT P6SM SKC FM241000 01010KT P6SM SKC
NOTAMs
Click for the latest NOTAMs
NOTAMs are issued by the DoD/FAA and will open in a separate window not controlled by AirNav.

 

 
 

Would you like to see your business listed on this page?

 If your business provides an interesting product or service to pilots, flight crews, aircraft, or users of the Myrtle Beach Hardee Airpark, you should consider listing it here.  To start the listing process, click on the button below
 
Add a business
 

Other Pages about Myrtle Beach Hardee Airpark

www.hardeeairpark.com
 
Update a link
 
Copyright © AirNav, LLC. All rights reserved. Privacy Policy  Contact